When you browse on this site, cookies collect data to enhance your experience and personalize the content and advertising you see.
Visit our Privacy Policy to learn more. By continuing to use the site, you agree to this use of cookies and data.
  • In Hungary
  • List of Countries
  • For 7 days
  • Water Temperature
  • Weather Map
  • News
  • Weather Widgets
  • user-avatar
    Login

    Hourly Weather Dubivka

    Today, 25 August, Sunday

    Time Temperature Precipitation Wind Pressure Humidity
    00:00 +18°C° 0 mm 3 mps 738 mmHg 75%
    01:00 +17°C° 0 mm 3 mps 738 mmHg 76%
    02:00 +17°C° 0 mm 3 mps 738 mmHg 77%
    03:00 +17°C° 0 mm 3 mps 738 mmHg 76%
    04:00 +16°C° 0 mm 2 mps 738 mmHg 76%
    05:00 +16°C° 0 mm 2 mps 738 mmHg 76%
    06:00 +17°C° 0 mm 3 mps 738 mmHg 72%
    07:00 +18°C° 0 mm 3 mps 739 mmHg 67%
    08:00 +20°C° 0 mm 3 mps 739 mmHg 63%
    09:00 +22°C° 0 mm 3 mps 739 mmHg 59%
    10:00 +24°C° 0 mm 3 mps 739 mmHg 55%
    11:00 +26°C° 0 mm 3 mps 739 mmHg 51%
    12:00 +27°C° 0 mm 3 mps 739 mmHg 50%
    13:00 +28°C° 0 mm 3 mps 739 mmHg 48%
    14:00 +28°C° 0 mm 3 mps 739 mmHg 47%
    15:00 +28°C° 0 mm 3 mps 738 mmHg 48%
    16:00 +28°C° 0 mm 4 mps 738 mmHg 50%
    17:00 +27°C° 0 mm 4 mps 738 mmHg 51%
    18:00 +26°C° 0 mm 4 mps 738 mmHg 55%
    19:00 +23°C° 0 mm 4 mps 738 mmHg 59%
    20:00 +21°C° 0 mm 5 mps 738 mmHg 63%
    21:00 +20°C° 0 mm 4 mps 738 mmHg 62%
    22:00 +19°C° 0 mm 4 mps 738 mmHg 60%
    23:00 +19°C° 0 mm 4 mps 738 mmHg 59%

    Tomorrow, 26 August, Monday

    Time Temperature Precipitation Wind Pressure Humidity
    00:00 +18°C° 0 mm 3 mps 739 mmHg 58%
    01:00 +18°C° 0 mm 3 mps 739 mmHg 57%
    02:00 +18°C° 0 mm 2 mps 739 mmHg 57%
    03:00 +17°C° 0 mm 3 mps 738 mmHg 56%
    04:00 +17°C° 0 mm 3 mps 738 mmHg 55%
    05:00 +17°C° 0 mm 3 mps 738 mmHg 54%
    06:00 +18°C° 0 mm 3 mps 738 mmHg 54%
    07:00 +19°C° 0 mm 3 mps 738 mmHg 54%
    08:00 +20°C° 0 mm 4 mps 738 mmHg 54%
    09:00 +22°C° 0 mm 4 mps 739 mmHg 50%
    10:00 +25°C° 0 mm 4 mps 739 mmHg 46%
    11:00 +27°C° 0 mm 4 mps 739 mmHg 42%
    12:00 +28°C° 0 mm 4 mps 739 mmHg 41%
    13:00 +28°C° 0 mm 4 mps 738 mmHg 40%
    14:00 +29°C° 0 mm 4 mps 738 mmHg 39%
    15:00 +29°C° 0 mm 4 mps 738 mmHg 40%
    16:00 +28°C° 0 mm 4 mps 737 mmHg 42%
    17:00 +28°C° 0 mm 3 mps 737 mmHg 43%
    18:00 +26°C° 0 mm 3 mps 737 mmHg 46%
    19:00 +24°C° 0 mm 3 mps 737 mmHg 50%
    20:00 +21°C° 0 mm 3 mps 737 mmHg 53%
    21:00 +20°C° 0 mm 3 mps 737 mmHg 57%
    22:00 +19°C° 0 mm 3 mps 737 mmHg 60%
    23:00 +18°C° 0 mm 3 mps 737 mmHg 64%

    Day after tomorrow, 27 August, Tuesday

    Time Temperature Precipitation Wind Pressure Humidity
    00:00 +18°C° 0 mm 3 mps 737 mmHg 67%
    01:00 +18°C° 0 mm 3 mps 737 mmHg 70%
    02:00 +17°C° 0 mm 3 mps 737 mmHg 73%
    03:00 +17°C° 0 mm 3 mps 737 mmHg 74%
    04:00 +16°C° 0 mm 3 mps 737 mmHg 76%
    05:00 +16°C° 0 mm 2 mps 737 mmHg 77%
    06:00 +17°C° 0 mm 3 mps 737 mmHg 72%
    07:00 +19°C° 0 mm 3 mps 737 mmHg 68%
    08:00 +21°C° 0 mm 3 mps 737 mmHg 63%
    09:00 +24°C° 0 mm 3 mps 737 mmHg 56%
    10:00 +26°C° 0 mm 3 mps 738 mmHg 50%
    11:00 +28°C° 0 mm 3 mps 738 mmHg 43%
    12:00 +29°C° 0 mm 3 mps 738 mmHg 40%
    13:00 +29°C° 0 mm 2 mps 737 mmHg 37%
    14:00 +30°C° 0 mm 2 mps 737 mmHg 33%
    15:00 +30°C° 0 mm 2 mps 737 mmHg 35%
    16:00 +30°C° 0 mm 2 mps 737 mmHg 37%
    17:00 +29°C° 0 mm 2 mps 737 mmHg 39%
    18:00 +27°C° 0 mm 3 mps 737 mmHg 45%
    19:00 +25°C° 0 mm 3 mps 737 mmHg 51%
    20:00 +22°C° 0 mm 3 mps 737 mmHg 57%
    21:00 +21°C° 0 mm 3 mps 737 mmHg 60%
    22:00 +20°C° 0 mm 4 mps 737 mmHg 63%
    23:00 +19°C° 0 mm 4 mps 737 mmHg 66%

    28 August, Wednesday

    Time Temperature Precipitation Wind Pressure Humidity
    00:00 +19°C° 0 mm 3 mps 737 mmHg 67%
    01:00 +18°C° 0 mm 3 mps 737 mmHg 69%
    02:00 +17°C° 0 mm 2 mps 737 mmHg 70%
    03:00 +17°C° 0 mm 2 mps 737 mmHg 71%
    04:00 +17°C° 0 mm 2 mps 737 mmHg 71%
    05:00 +16°C° 0 mm 2 mps 737 mmHg 72%
    06:00 +18°C° 0 mm 2 mps 737 mmHg 68%
    07:00 +19°C° 0 mm 2 mps 737 mmHg 64%
    08:00 +21°C° 0 mm 3 mps 737 mmHg 60%
    09:00 +24°C° 0 mm 3 mps 737 mmHg 55%
    10:00 +25°C° 0 mm 3 mps 737 mmHg 50%
    11:00 +27°C° 0 mm 3 mps 737 mmHg 44%
    12:00 +28°C° 0 mm 3 mps 737 mmHg 42%
    13:00 +28°C° 0 mm 3 mps 737 mmHg 39%
    14:00 +29°C° 0 mm 3 mps 736 mmHg 37%
    15:00 +29°C° 0 mm 3 mps 736 mmHg 39%
    16:00 +28°C° 0 mm 3 mps 736 mmHg 41%
    17:00 +28°C° 0 mm 3 mps 736 mmHg 43%
    18:00 +26°C° 0 mm 3 mps 736 mmHg 49%
    19:00 +22°C° 0 mm 3 mps 735 mmHg 54%
    20:00 +20°C° 0 mm 3 mps 735 mmHg 60%
    21:00 +20°C° 0 mm 4 mps 735 mmHg 64%
    22:00 +19°C° 0 mm 4 mps 735 mmHg 68%
    23:00 +18°C° 0 mm 4 mps 736 mmHg 73%

    29 August, Thursday

    Time Temperature Precipitation Wind Pressure Humidity
    00:00 +18°C° 0 mm 4 mps 735 mmHg 73%
    01:00 +17°C° 0 mm 3 mps 735 mmHg 74%
    02:00 +16°C° 0 mm 3 mps 735 mmHg 74%
    03:00 +16°C° 0 mm 3 mps 735 mmHg 74%
    04:00 +16°C° 0 mm 3 mps 735 mmHg 73%
    05:00 +14°C° 0 mm 3 mps 735 mmHg 72%
    06:00 +17°C° 0 mm 4 mps 735 mmHg 69%
    07:00 +18°C° 0 mm 4 mps 735 mmHg 65%
    08:00 +19°C° 0 mm 4 mps 735 mmHg 61%
    09:00 +21°C° 0 mm 4 mps 735 mmHg 57%
    10:00 +23°C° 0 mm 4 mps 736 mmHg 53%
    11:00 +25°C° 0 mm 5 mps 736 mmHg 48%
    12:00 +26°C° 0 mm 5 mps 736 mmHg 46%
    13:00 +27°C° 0 mm 4 mps 735 mmHg 44%
    14:00 +27°C° 0 mm 4 mps 735 mmHg 42%
    15:00 +27°C° 0 mm 5 mps 735 mmHg 43%
    16:00 +26°C° 0 mm 5 mps 735 mmHg 44%
    17:00 +26°C° 0 mm 5 mps 735 mmHg 45%
    18:00 +23°C° 0 mm 5 mps 735 mmHg 47%
    19:00 +21°C° 0 mm 5 mps 735 mmHg 50%
    20:00 +19°C° 0 mm 5 mps 735 mmHg 52%
    21:00 +17°C° 0 mm 5 mps 735 mmHg 52%
    22:00 +15°C° 0 mm 4 mps 735 mmHg 51%
    23:00 +14°C° 0 mm 4 mps 735 mmHg 50%

    30 August, Friday

    Time Temperature Precipitation Wind Pressure Humidity
    00:00 +14°C° 0 mm 4 mps 736 mmHg 49%
    01:00 +13°C° 0 mm 4 mps 736 mmHg 48%
    02:00 +13°C° 0 mm 4 mps 736 mmHg 48%
    03:00 +12°C° 0 mm 4 mps 736 mmHg 47%
    04:00 +12°C° 0 mm 4 mps 736 mmHg 47%
    05:00 +12°C° 0 mm 4 mps 736 mmHg 47%
    06:00 +13°C° 0 mm 4 mps 736 mmHg 46%
    07:00 +14°C° 0 mm 5 mps 736 mmHg 46%
    08:00 +15°C° 0 mm 5 mps 736 mmHg 46%
    09:00 +17°C° 0 mm 5 mps 736 mmHg 42%
    10:00 +20°C° 0 mm 5 mps 737 mmHg 39%
    11:00 +22°C° 0 mm 5 mps 737 mmHg 36%
    12:00 +23°C° 0 mm 5 mps 737 mmHg 34%
    13:00 +25°C° 0 mm 4 mps 736 mmHg 32%
    14:00 +25°C° 0 mm 4 mps 736 mmHg 30%
    15:00 +25°C° 0 mm 4 mps 736 mmHg 32%
    16:00 +25°C° 0 mm 4 mps 736 mmHg 33%
    17:00 +25°C° 0 mm 3 mps 735 mmHg 34%
    18:00 +21°C° 0 mm 3 mps 735 mmHg 37%
    19:00 +19°C° 0 mm 3 mps 735 mmHg 41%
    20:00 +17°C° 0 mm 3 mps 735 mmHg 44%
    21:00 +15°C° 0 mm 4 mps 736 mmHg 44%
    22:00 +14°C° 0 mm 4 mps 736 mmHg 44%
    23:00 +14°C° 0 mm 4 mps 736 mmHg 44%
    Show more